{"data":{"norad_id":64470,"epoch":"2026-05-25T02:28:15.135744Z","epoch_age_seconds":59367,"freshness":"FRESH","line1":"1 64470U 25132A   26145.10295296 -.00000250  00000+0  00000+0 0  9992","line2":"2 64470   0.0265  82.9167 0003006 336.2684 312.7813  1.00272849  3911","mean_motion":1.00272849,"eccentricity":0.0003006,"inclination_deg":0.0265,"raan_deg":82.9167,"arg_perigee_deg":336.2684,"mean_anomaly_deg":312.7813,"bstar":0,"rev_number":391,"period_min":1436.0816655364,"perigee_km":35773.622057238,"apogee_km":35798.97131477,"semimajor_km":42164.433686004,"source":"CELESTRAK","updated_at":"2026-05-25T13:38:14.154350Z"}}